sat.trackr.live / text

‹ back to catalog

HUBBLE 6

NORAD 64562 · 2025-135AL

PAYLOAD ACTIVE UNKNOWN

§ Identity

Operator
Country
US
Launch date
2025-06-23
Launch site
AFWTR
Launch vehicle
Mass (kg)
RCS (m²)

External: N2YO · Heavens-Above · Gunter

§ Orbital elements

Epoch: 2026-09-21T20:31:24.011328Z

Period
96.40 min
Inclination
97.7826°
Eccentricity
0.0001644
Mean motion
14.93698580 rev/d
Perigee alt
585.3 km
Apogee alt
587.6 km
Semi-major
6,964.6 km
B*
1.1149e-4
RAAN
18.0235°
Arg perigee
103.7066°
Mean anomaly
256.4337°
Rev number
6,830

§ Raw data

HUBBLE 61 64562U 25135AL  26264.85513902  .00001122  00000+0  11149-3 0  99962 64562  97.7826  18.0235 0001644 103.7066 256.4337 14.93698580 68301

JSON: /api/v1/satellites/64562 · /tle

For live sub-satellite position, see the globe view (requires WebGL).

§ Visibility from observer

Set your observer location to see the next 7 days of passes ≥ 10°. The values pass through the URL so the page stays shareable.

No JS? Fill the form by hand. The geolocation button needs JavaScript.

§ Radio — SatNOGS DB

ModeDescriptionDownlinkUplink
FM Mode S - Transmitter 2.201 GHz
GMSK Mode U - GMSK4k8 401.100 MHz
FM Mode U - Transmitter 2 402.790 MHz

3 transmitters · refreshed weekly from db.satnogs.org